Location: Newark
(13.6797°N, 8.5297°E)
Time: 09:16:11
(UTC+00:00)

LightSail 2 - Visible Passes

Search period start: 06 December 2019 00:00
Search period end: 16 December 2019 00:00
Orbit: 695 x 731 km, 24.0° (Epoch: 05 December)

Date Brightness Start Highest point End Pass type
(mag) Time Alt. Az. Time Alt. Az. Time Alt. Az.
06 Dec 6.2 18:10:56 10° NW 18:15:21 28° N 18:16:20 26° NNE visible
07 Dec 6.5 18:58:15 10° WNW 19:01:03 29° NW 19:01:03 29° NW visible
08 Dec 5.9 18:00:14 10° NW 18:04:58 35° NNE 18:06:52 27° NE visible
08 Dec 8.0 19:45:34 10° WNW 19:45:52 12° WNW 19:45:52 12° WNW visible
09 Dec 5.4 18:47:29 10° WNW 18:51:46 56° NNW 18:51:46 56° NNW visible
10 Dec 5.4 17:49:26 10° WNW 17:54:28 50° NNE 17:57:47 20° E visible
10 Dec 7.4 19:35:01 10° W 19:36:48 21° W 19:36:48 21° W visible
11 Dec 5.1 18:36:47 10° WNW 18:41:58 77° SSW 18:42:55 58° SE visible
12 Dec 5.1 17:38:39 10° WNW 17:43:51 78° NNE 17:49:01 10° ESE visible
12 Dec 6.9 19:24:46 10° W 19:28:11 28° SW 19:28:11 28° SW visible
13 Dec 6.1 18:26:18 10° W 18:31:14 44° SSW 18:34:33 19° SE visible
14 Dec 5.6 17:27:59 10° WNW 17:33:09 64° SSW 17:38:16 10° ESE visible
14 Dec 7.4 19:15:05 10° WSW 19:18:32 18° SSW 19:20:03 16° S visible
15 Dec 7.1 18:16:10 10° W 18:20:27 26° SSW 18:24:42 10° SSE visible
